EWG82N EDDG-EDGG

Flight info

Callsign EWG82N
Flight time N/A
Altitude 11000
Route OSNAD1W/25 OSNAD
Aircraft A320/M-SDE3FGHIRWY/LB1

Departure

Time 2026-04-24 18:55
Airport Münster Osnabrück Airport (EDDG)

Arrival

Time N/A
Airport EDGG
Time Latitude Longitude Altitude Speed Heading
2026-04-24 18:54 52.05456 7.55034 5472 ft 252 kts 140°
2026-04-24 18:55 52.03677 7.59713 6134 ft 252 kts 94°
2026-04-24 18:55 52.03793 7.62632 6479 ft 266 kts 70°
2026-04-24 18:55 52.04470 7.65466 6796 ft 272 kts 64°
2026-04-24 18:56 52.05195 7.68328 7116 ft 275 kts 65°
2026-04-24 18:56 52.05922 7.71211 7431 ft 277 kts 65°
2026-04-24 18:56 52.06648 7.74116 7749 ft 278 kts 65°
2026-04-24 18:56 52.07377 7.77046 8070 ft 280 kts 65°
2026-04-24 18:57 52.08110 7.79993 8170 ft 282 kts 65°
2026-04-24 18:57 52.08843 7.82949 8191 ft 282 kts 65°
2026-04-24 18:57 52.09327 7.84905 8192 ft 282 kts 65°
2026-04-24 18:57 52.10304 7.88858 8196 ft 281 kts 65°
2026-04-24 18:58 52.10783 7.90804 8017 ft 278 kts 65°
2026-04-24 18:58 52.11497 7.93710 7582 ft 276 kts 65°
2026-04-24 18:58 52.12209 7.96608 7186 ft 274 kts 65°
2026-04-24 18:58 52.12716 7.99588 6798 ft 276 kts 84°
2026-04-24 18:59 52.12449 8.02721 6379 ft 278 kts 102°
2026-04-24 18:59 52.11930 8.05704 5938 ft 278 kts 103°
2026-04-24 18:59 52.11371 8.08752 5483 ft 276 kts 101°
2026-04-24 18:59 52.11297 8.11784 5088 ft 265 kts 72°
2026-04-24 19:00 52.12117 8.14357 4995 ft 255 kts 43°
2026-04-24 19:00 52.13440 8.16218 4996 ft 255 kts 34°
2026-04-24 19:00 52.14854 8.17963 5010 ft 256 kts 34°
2026-04-24 19:00 52.16320 8.19582 5000 ft 252 kts 22°
2026-04-24 19:01 52.18014 8.20062 4999 ft 249 kts 353°
2026-04-24 19:01 52.19621 8.19074 5002 ft 251 kts 324°
2026-04-24 19:01 52.20728 8.16863 5015 ft 257 kts 299°
2026-04-24 19:01 52.21425 8.14163 5004 ft 259 kts 294°
2026-04-24 19:02 52.22053 8.11397 5007 ft 261 kts 291°
2026-04-24 19:02 52.22168 8.08437 4998 ft 270 kts 259°
2026-04-24 19:02 52.21370 8.05633 4749 ft 274 kts 244°
2026-04-24 19:02 52.20607 8.02826 4400 ft 267 kts 254°
2026-04-24 19:03 52.20041 8.00011 4046 ft 262 kts 256°
2026-04-24 19:03 52.19481 7.97217 3702 ft 258 kts 255°
2026-04-24 19:03 52.18912 7.94473 3365 ft 253 kts 255°
2026-04-24 19:03 52.18350 7.91783 3017 ft 247 kts 254°
2026-04-24 19:04 52.17811 7.89209 2694 ft 232 kts 254°
2026-04-24 19:04 52.17305 7.86784 2388 ft 219 kts 254°
2026-04-24 19:04 52.16827 7.84500 2095 ft 207 kts 254°
2026-04-24 19:04 52.16384 7.82388 1851 ft 186 kts 255°
2026-04-24 19:05 52.15961 7.80360 1565 ft 196 kts 254°
2026-04-24 19:05 52.15535 7.78334 1294 ft 178 kts 254°
2026-04-24 19:05 52.15153 7.76518 1065 ft 163 kts 254°
2026-04-24 19:05 52.14799 7.74833 868 ft 150 kts 253°
2026-04-24 19:06 52.14477 7.73305 660 ft 135 kts 256°
2026-04-24 19:06 52.14180 7.71904 458 ft 128 kts 254°
2026-04-24 19:06 52.13903 7.70562 310 ft 122 kts 254°
2026-04-24 19:06 52.13627 7.69262 172 ft 117 kts 254°
2026-04-24 19:07 52.13410 7.68217 168 ft 77 kts 250°
2026-04-24 19:07 52.13278 7.67597 166 ft 37 kts 251°
2026-04-24 19:07 52.13222 7.67335 165 ft 18 kts 251°
2026-04-24 19:07 52.13179 7.67138 166 ft 20 kts 247°
2026-04-24 19:08 52.13129 7.67048 167 ft 8 kts 195°